GW5111 Weather Reports


Display with metric or nautical units.
time (UTC)temp
F
wind
direction
speed
MPH
gust
MPH
rain 1hr
in
rain 24hr
in
rain mn
in
humidity
%
barometer
mb
20260906104323 65 95 0.0 1.0 0.00 0.00 0.00 99 1017.0
20260906103822 65 103 1.0 2.0 0.00 0.00 0.00 99 1016.9
20260906103320 66 93 1.0 1.0 0.00 0.00 0.00 99 1016.9
20260906102816 66 82 1.0 3.0 0.00 0.00 0.00 99 1016.9
20260906102315 66 49 2.0 2.0 0.00 0.00 0.00 99 1016.7
20260906101811 66 86 1.0 1.0 0.00 0.00 0.00 99 1016.6
20260906101306 65 13 0.0 0.0 0.00 0.00 0.00 99 1016.7
20260906100801 65 342 0.0 1.0 0.00 0.00 0.00 99 1016.9
20260906100300 65 5 2.0 2.0 0.00 0.00 0.00 99 1016.7
20260906095756 65 338 2.0 2.0 0.00 0.00 0.00 99 1016.4
20260906095251 65 15 0.0 1.0 0.00 0.00 0.00 99 1016.6
20260906094750 65 6 1.0 1.0 0.00 0.00 0.00 99 1016.5
20260906094245 65 35 1.0 1.0 0.00 0.00 0.00 99 1016.4
20260906093741 65 276 0.0 0.0 0.00 0.00 0.00 99 1016.5
20260906093237 65 290 0.0 1.0 0.00 0.00 0.00 99 1016.3
20260906092732 65 92 0.0 0.0 0.00 0.00 0.00 99 1016.2
20260906092232 65 92 0.0 0.0 0.00 0.00 0.00 99 1016.2
20260906091728 65 92 1.0 1.0 0.00 0.00 0.00 99 1016.4
20260906091224 65 57 0.0 0.0 0.00 0.00 0.00 99 1016.2
20260906090720 65 274 0.0 0.0 0.00 0.00 0.00 99 1016.3
20260906090219 65 276 1.0 2.0 0.00 0.00 0.00 99 1016.4
20260906085718 65 293 1.0 1.0 0.00 0.00 0.00 99 1016.2
20260906085217 65 5 1.0 1.0 0.00 0.00 0.00 99 1016.3
20260906084713 65 5 1.0 1.0 0.00 0.00 0.00 99 1016.3
20260906084212 65 4 1.0 2.0 0.00 0.00 0.00 99 1016.3
20260906083708 65 265 1.0 2.0 0.00 0.00 0.00 99 1016.4
20260906083203 65 264 1.0 2.0 0.00 0.00 0.00 99 1016.3
20260906082658 65 264 0.0 0.0 0.00 0.00 0.00 99 1016.7
20260906082153 65 264 1.0 1.0 0.00 0.00 0.00 99 1016.5
20260906081649 65 264 1.0 1.0 0.00 0.00 0.00 99 1016.6
20260906081144 65 264 0.0 0.0 0.00 0.00 0.00 99 1016.5
20260906080640 65 264 0.0 0.0 0.00 0.00 0.00 99 1016.6
20260906080136 65 264 1.0 2.0 0.00 0.00 0.00 99 1016.5
20260906075636 65 258 1.0 2.0 0.00 0.00 0.00 99 1016.5
20260906075130 64 238 0.0 0.0 0.00 0.00 0.00 99 1016.4
20260906074626 65 238 1.0 1.0 0.00 0.00 0.00 99 1016.4
20260906074125 64 207 0.0 0.0 0.00 0.00 0.00 99 1016.4
20260906073620 64 178 0.0 0.0 0.00 0.00 0.00 99 1016.5
20260906073115 64 178 0.0 0.0 0.00 0.00 0.00 99 1016.5
20260906072611 65 91 1.0 1.0 0.00 0.00 0.00 99 1016.3
20260906072107 65 115 0.0 1.0 0.00 0.00 0.00 99 1016.5
20260906071603 65 136 0.0 0.0 0.00 0.00 0.00 99 1016.5
20260906071102 64 178 0.0 0.0 0.00 0.00 0.00 99 1016.4
20260906070559 65 178 0.0 1.0 0.00 0.00 0.00 99 1016.6
20260906070054 65 171 0.0 0.0 0.00 0.00 0.00 99 1016.5
20260906065554 65 104 0.0 0.0 0.00 0.00 0.00 99 1016.5
20260906065050 65 77 0.0 0.0 0.00 0.00 0.00 99 1016.5
20260906064545 65 35 0.0 1.0 0.00 0.00 0.00 99 1016.5
20260906064040 65 36 1.0 2.0 0.00 0.00 0.00 99 1016.7
20260906063535 65 89 0.0 2.0 0.00 0.00 0.00 99 1016.7
20260906063032 65 76 1.0 2.0 0.00 0.00 0.00 99 1016.7
20260906062527 65 61 0.0 2.0 0.00 0.00 0.00 99 1016.7
20260906062021 65 134 0.0 0.0 0.00 0.00 0.00 99 1017.0
20260906061517 65 134 0.0 0.0 0.00 0.00 0.00 99 1017.0
20260906061016 66 134 0.0 1.0 0.00 0.00 0.00 99 1016.9
20260906060513 66 112 0.0 0.0 0.00 0.00 0.00 99 1017.2
20260906060010 66 20 0.0 3.0 0.00 0.00 0.00 99 1017.0
20260906055506 66 31 2.0 4.0 0.00 0.00 0.00 99 1017.0
20260906055001 66 55 2.0 6.0 0.00 0.00 0.00 99 1017.0
20260906054500 66 71 3.0 3.0 0.00 0.00 0.00 99 1016.8
20260906053956 66 49 2.0 6.0 0.00 0.00 0.00 99 1017.2
20260906053452 66 76 2.0 6.0 0.00 0.00 0.00 99 1016.9
20260906052948 67 42 3.0 7.0 0.00 0.00 0.00 99 1017.0
20260906052444 67 50 4.0 6.0 0.00 0.00 0.00 99 1016.9
20260906051940 67 52 2.0 4.0 0.00 0.00 0.00 99 1017.2
20260906051435 67 12 4.0 6.0 0.00 0.00 0.00 99 1016.9
20260906050931 67 32 2.0 6.0 0.00 0.00 0.00 99 1017.0
20260906050431 67 40 4.0 6.0 0.00 0.00 0.00 99 1016.9
20260906045930 67 60 3.0 7.0 0.00 0.00 0.00 99 1016.9
20260906045429 67 31 4.0 6.0 0.00 0.00 0.00 99 1016.7
20260906044926 67 27 3.0 6.0 0.00 0.00 0.00 99 1016.8
20260906044425 67 70 4.0 4.0 0.00 0.00 0.00 99 1016.8
20260906043921 67 24 2.0 4.0 0.00 0.00 0.00 99 1016.8
20260906043417 67 87 4.0 6.0 0.00 0.00 0.00 99 1016.9
20260906042913 67 33 4.0 7.0 0.00 0.00 0.00 99 1016.9
20260906042412 67 40 4.0 4.0 0.00 0.00 0.00 98 1016.8
20260906041907 67 68 5.0 6.0 0.00 0.00 0.00 98 1017.0
20260906041403 67 112 3.0 4.0 0.00 0.00 0.00 98 1017.0
20260906040902 67 71 4.0 4.0 0.00 0.00 0.00 98 1017.2
20260906040357 67 58 3.0 6.0 0.00 0.00 0.00 98 1017.3
20260906035853 67 59 2.0 4.0 0.00 0.17 0.17 97 1017.3
20260906035348 67 34 3.0 4.0 0.00 0.17 0.17 97 1017.4
20260906034843 68 38 2.0 3.0 0.00 0.17 0.17 96 1017.5
20260906034338 68 33 3.0 3.0 0.00 0.17 0.17 96 1017.6
20260906033834 68 3 2.0 4.0 0.00 0.17 0.17 95 1017.5
20260906033333 68 53 4.0 4.0 0.00 0.17 0.17 95 1017.5
20260906032830 68 47 3.0 7.0 0.00 0.17 0.17 95 1017.5
20260906032325 68 47 1.0 3.0 0.00 0.17 0.17 96 1017.7
20260906031820 68 8 3.0 4.0 0.00 0.17 0.17 96 1017.6
20260906031316 68 33 2.0 3.0 0.00 0.17 0.17 96 1017.8
20260906030815 68 25 3.0 4.0 0.00 0.17 0.17 95 1017.7
20260906030311 68 8 2.0 4.0 0.00 0.17 0.17 95 1017.6
20260906025810 68 8 2.0 3.0 0.00 0.17 0.17 95 1018.0
20260906025306 69 27 4.0 6.0 0.00 0.17 0.17 94 1017.7
20260906024804 68 51 4.0 7.0 0.00 0.17 0.17 94 1017.7
20260906024303 68 20 2.0 4.0 0.00 0.17 0.17 95 1017.7
20260906023759 68 15 3.0 4.0 0.00 0.17 0.17 95 1017.8
20260906023254 68 12 4.0 6.0 0.00 0.17 0.17 95 1017.7
20260906022749 68 13 2.0 6.0 0.00 0.17 0.17 95 1017.9
20260906022244 68 16 2.0 4.0 0.00 0.17 0.17 95 1017.9
20260906021741 68 352 3.0 4.0 0.00 0.17 0.17 95 1017.9
20260906021240 68 47 2.0 6.0 0.00 0.17 0.17 95 1017.9
20260906020735 68 23 1.0 3.0 0.00 0.17 0.17 95 1017.7
20260906020234 68 29 3.0 4.0 0.00 0.17 0.17 95 1017.8
20260906015729 68 25 1.0 4.0 0.00 0.17 0.17 95 1017.7
20260906015227 68 40 2.0 4.0 0.00 0.17 0.17 95 1017.9
20260906014722 68 42 3.0 3.0 0.00 0.17 0.17 95 1017.8
20260906014218 68 38 2.0 6.0 0.00 0.17 0.17 95 1017.8
20260906013714 68 59 1.0 4.0 0.00 0.17 0.17 95 1017.7
20260906013214 68 359 1.0 3.0 0.00 0.17 0.17 95 1017.8
20260906012710 68 18 4.0 6.0 0.00 0.17 0.17 95 1017.8
20260906012209 68 4 1.0 3.0 0.00 0.17 0.17 94 1017.6
20260906011705 68 26 2.0 3.0 0.00 0.17 0.17 95 1017.4
20260906011159 68 0 2.0 4.0 0.00 0.17 0.17 95 1017.5
20260906010655 68 354 2.0 3.0 0.00 0.17 0.17 95 1017.3
20260906010151 68 9 1.0 3.0 0.00 0.17 0.17 94 1017.2
20260906005650 68 15 5.0 6.0 0.00 0.17 0.17 94 1017.2
20260906005150 68 22 4.0 4.0 0.00 0.17 0.17 94 1017.0
20260906004649 69 26 2.0 8.0 0.00 0.17 0.17 93 1017.3
20260906004144 68 22 3.0 4.0 0.00 0.17 0.17 93 1017.0
20260906003639 69 21 5.0 7.0 0.00 0.17 0.17 93 1017.0
20260906003135 69 21 4.0 4.0 0.00 0.17 0.17 92 1016.9
20260906002630 69 325 4.0 7.0 0.00 0.17 0.17 92 1016.9
20260906002125 69 23 6.0 7.0 0.00 0.17 0.17 92 1016.8
20260906001620 69 53 3.0 6.0 0.00 0.17 0.17 91 1016.9
20260906001119 69 39 3.0 7.0 0.00 0.17 0.17 91 1017.2
20260906000616 69 50 3.0 6.0 0.00 0.17 0.17 91 1017.2
20260906000111 69 28 4.0 4.0 0.00 0.17 0.17 91 1016.8
20260905235610 69 355 5.0 6.0 0.00 0.17 0.17 91 1017.0
20260905235105 69 80 4.0 4.0 0.00 0.17 0.17 90 1016.9
20260905234600 70 355 5.0 7.0 0.00 0.17 0.17 90 1017.0
20260905234055 70 18 2.0 6.0 0.00 0.17 0.17 89 1017.2
20260905233555 70 1 2.0 4.0 0.00 0.17 0.17 88 1016.8
20260905233050 71 10 4.0 6.0 0.00 0.17 0.17 88 1016.9
20260905232545 71 337 4.0 8.0 0.00 0.17 0.17 87 1016.9
20260905232041 71 44 3.0 8.0 0.00 0.17 0.17 86 1017.2
20260905231536 71 337 2.0 7.0 0.00 0.17 0.17 86 1017.3
20260905231032 72 49 3.0 7.0 0.00 0.17 0.17 86 1017.2
20260905230531 72 327 6.0 8.0 0.00 0.17 0.17 84 1017.4
20260905230030 73 350 2.0 3.0 0.00 0.17 0.17 84 1017.2
20260905225525 73 29 3.0 3.0 0.00 0.17 0.17 84 1017.0
20260905225020 73 13 4.0 6.0 0.00 0.17 0.17 83 1017.3
20260905224515 73 348 6.0 7.0 0.00 0.17 0.17 83 1017.5
20260905224014 74 16 5.0 7.0 0.00 0.17 0.17 82 1017.3
20260905223512 74 13 4.0 7.0 0.00 0.17 0.17 82 1017.3
20260905223008 74 9 3.0 8.0 0.00 0.17 0.17 82 1017.2
20260905222507 75 42 2.0 4.0 0.00 0.17 0.17 83 1017.2
20260905222003 74 333 4.0 6.0 0.00 0.17 0.17 83 1017.3
20260905221459 74 40 5.0 7.0 0.00 0.17 0.17 82 1017.0
20260905220955 74 11 4.0 6.0 0.00 0.17 0.17 83 1016.9
20260905220451 74 67 8.0 9.0 0.00 0.17 0.17 81 1016.8
20260905215950 75 84 6.0 9.0 0.00 0.17 0.17 81 1016.9
20260905215446 75 16 6.0 7.0 0.00 0.17 0.17 79 1016.7
20260905214942 76 22 5.0 9.0 0.00 0.17 0.17 80 1016.6
20260905214437 77 35 6.0 9.0 0.00 0.17 0.17 77 1016.6
20260905213937 77 311 4.0 7.0 0.00 0.17 0.17 81 1016.6
20260905213434 78 33 5.0 6.0 0.00 0.17 0.17 77 1016.6
20260905212929 77 37 4.0 13.0 0.00 0.17 0.17 80 1016.5
20260905212424 77 22 3.0 8.0 0.00 0.17 0.17 78 1016.3
20260905211922 77 25 6.0 9.0 0.00 0.17 0.17 79 1016.3
20260905211419 77 45 5.0 8.0 0.00 0.17 0.17 79 1016.5
20260905210915 78 62 6.0 9.0 0.00 0.17 0.17 76 1016.3
20260905210414 78 27 4.0 6.0 0.00 0.17 0.17 77 1016.4
20260905205914 77 359 4.0 7.0 0.00 0.17 0.17 78 1016.4
20260905205409 78 357 7.0 9.0 0.00 0.17 0.17 77 1016.5
20260905204908 77 40 3.0 8.0 0.00 0.17 0.17 79 1016.4
20260905204404 76 339 4.0 8.0 0.00 0.17 0.17 80 1016.4
20260905203903 77 45 5.0 7.0 0.00 0.17 0.17 79 1016.3
20260905203358 76 44 6.0 11.0 0.00 0.17 0.17 78 1016.5
20260905202854 76 66 8.0 9.0 0.00 0.17 0.17 79 1016.4
20260905202348 77 21 6.0 11.0 0.00 0.17 0.17 78 1016.4
20260905201844 76 44 3.0 7.0 0.00 0.17 0.17 79 1016.3
20260905201340 76 15 3.0 8.0 0.00 0.17 0.17 79 1016.5
20260905200833 76 74 7.0 8.0 0.00 0.17 0.17 79 1016.6
20260905200330 76 42 4.0 11.0 0.00 0.17 0.17 76 1016.3
20260905195828 76 21 3.0 11.0 0.00 0.17 0.17 78 1016.5
20260905195323 76 77 4.0 7.0 0.00 0.17 0.17 79 1016.7
20260905194819 76 54 10.0 13.0 0.00 0.17 0.17 79 1016.5
20260905194318 76 25 5.0 10.0 0.00 0.17 0.17 77 1016.7
20260905193817 77 333 6.0 11.0 0.00 0.17 0.17 79 1016.8
20260905193313 77 66 8.0 10.0 0.00 0.17 0.17 79 1016.8
20260905192808 76 359 3.0 7.0 0.00 0.17 0.17 83 1016.8
20260905192306 76 19 5.0 9.0 0.00 0.17 0.17 81 1016.9
20260905191803 76 54 3.0 11.0 0.00 0.17 0.17 79 1016.9
20260905191303 76 40 6.0 8.0 0.00 0.17 0.17 81 1016.8
20260905190801 75 327 2.0 11.0 0.00 0.17 0.17 82 1017.2
20260905190300 76 346 9.0 10.0 0.00 0.17 0.17 80 1017.3
20260905185759 77 357 6.0 10.0 0.00 0.17 0.17 77 1017.3
20260905185255 76 35 3.0 9.0 0.00 0.17 0.17 83 1017.5
20260905184754 76 41 5.0 8.0 0.00 0.17 0.17 80 1017.5
20260905184247 77 314 2.0 9.0 0.00 0.17 0.17 83 1017.4
20260905183741 76 330 2.0 8.0 0.00 0.17 0.17 80 1017.4
20260905183237 75 351 6.0 10.0 0.00 0.17 0.17 77 1017.4
20260905182736 76 60 3.0 6.0 0.00 0.17 0.17 80 1017.5
20260905182236 75 10 6.0 10.0 0.00 0.17 0.17 79 1017.6
20260905181731 75 31 2.0 4.0 0.00 0.17 0.17 84 1017.6
20260905181230 74 10 4.0 9.0 0.00 0.17 0.17 82 1017.7
20260905180725 75 48 6.0 11.0 0.00 0.17 0.17 82 1017.7
20260905180220 75 61 6.0 8.0 0.00 0.17 0.17 86 1018.0
20260905175720 73 46 4.0 8.0 0.00 0.17 0.17 91 1018.0
20260905175215 74 53 6.0 7.0 0.00 0.17 0.17 91 1018.0
20260905174710 73 50 4.0 6.0 0.00 0.17 0.17 91 1018.3
20260905174206 73 34 2.0 3.0 0.00 0.17 0.17 92 1018.0
20260905173702 73 326 3.0 4.0 0.00 0.17 0.17 90 1018.0
20260905173157 73 288 5.0 8.0 0.00 0.17 0.17 89 1018.1
20260905172657 73 28 6.0 8.0 0.00 0.17 0.17 91 1018.4
20260905172151 72 335 2.0 4.0 0.00 0.17 0.17 93 1018.1
20260905171647 72 324 3.0 3.0 0.00 0.17 0.17 92 1018.3
20260905171143 71 297 3.0 4.0 0.00 0.17 0.17 93 1018.1
20260905170640 71 300 3.0 6.0 0.00 0.17 0.17 94 1018.1
20260905170135 71 321 4.0 8.0 0.00 0.17 0.17 95 1018.3
20260905165635 70 280 6.0 8.0 0.00 0.17 0.17 94 1018.4
20260905165130 70 311 4.0 6.0 0.00 0.17 0.17 95 1018.1
20260905164625 70 311 7.0 9.0 0.00 0.17 0.17 95 1018.3
20260905164124 70 289 7.0 8.0 0.00 0.17 0.17 96 1018.0
20260905163620 69 309 5.0 9.0 0.00 0.17 0.17 97 1018.3
20260905163116 70 287 4.0 7.0 0.00 0.17 0.17 98 1018.4
20260905162613 70 273 4.0 6.0 0.00 0.17 0.17 97 1018.5
20260905162111 70 282 2.0 4.0 0.00 0.17 0.17 97 1018.1
20260905161611 70 208 1.0 3.0 0.00 0.17 0.17 97 1018.5
20260905161110 69 276 3.0 7.0 0.00 0.17 0.17 98 1018.4
20260905160609 69 279 4.0 6.0 0.00 0.17 0.17 98 1018.8
20260905160109 69 291 2.0 2.0 0.00 0.17 0.17 98 1018.9
20260905155604 69 275 3.0 4.0 0.00 0.17 0.17 97 1019.2
20260905155102 69 298 2.0 2.0 0.00 0.17 0.17 96 1019.2
20260905154557 68 8 0.0 2.0 0.00 0.17 0.17 97 1019.4
20260905154052 68 20 0.0 3.0 0.00 0.17 0.17 97 1019.4
20260905153548 68 62 2.0 4.0 0.00 0.17 0.17 98 1019.6
20260905153048 68 55 3.0 6.0 0.00 0.17 0.17 98 1019.5
20260905152543 68 80 4.0 7.0 0.00 0.17 0.17 98 1019.5
20260905152038 69 17 4.0 9.0 0.00 0.17 0.17 98 1019.6
20260905151533 69 25 5.0 9.0 0.00 0.17 0.17 97 1019.6
20260905151028 68 56 5.0 10.0 0.00 0.17 0.17 98 1019.8
20260905150523 68 70 5.0 9.0 0.00 0.17 0.17 98 1019.8
20260905150022 68 62 6.0 9.0 0.00 0.17 0.17 99 1019.8
20260905145521 67 357 4.0 10.0 0.00 0.17 0.17 99 1019.7
20260905145020 67 340 5.0 6.0 0.00 0.17 0.17 99 1019.8
20260905144515 66 1 2.0 6.0 0.00 0.17 0.17 99 1019.6
20260905144014 65 60 4.0 6.0 0.00 0.17 0.17 99 1019.5
20260905143514 65 45 4.0 8.0 0.00 0.17 0.17 99 1019.5
20260905143009 65 35 7.0 9.0 0.07 0.17 0.17 99 1019.7
20260905142507 65 47 8.0 13.0 0.07 0.17 0.17 99 1019.9
20260905142004 65 52 4.0 10.0 0.12 0.16 0.16 99 1019.9
20260905141503 65 77 7.0 11.0 0.59 0.16 0.16 99 1019.8
20260905141000 65 79 9.0 14.0 0.83 0.14 0.14 99 1019.5
20260905140454 67 50 7.0 13.0 0.24 0.04 0.04 99 1019.6
20260905135953 69 86 15.0 21.0 0.00 0.00 0.00 96 1019.8
20260905135449 71 25 3.0 7.0 0.00 0.00 0.00 95 1019.5
20260905134944 71 4 4.0 8.0 0.00 0.00 0.00 95 1018.8
20260905134443 71 4 4.0 7.0 0.00 0.00 0.00 95 1018.7
20260905133942 71 19 8.0 13.0 0.00 0.00 0.00 95 1018.7
20260905133438 71 338 5.0 7.0 0.00 0.00 0.00 95 1018.7
20260905132937 72 345 4.0 7.0 0.00 0.00 0.00 94 1018.6
20260905132433 72 319 6.0 10.0 0.00 0.00 0.00 94 1018.7
20260905131927 72 351 6.0 10.0 0.00 0.00 0.00 93 1018.7
20260905131424 73 338 5.0 10.0 0.00 0.00 0.00 92 1018.8
20260905130924 73 4 9.0 11.0 0.00 0.00 0.00 91 1018.7
20260905130424 73 7 2.0 6.0 0.00 0.00 0.00 92 1018.6
20260905125923 73 339 4.0 7.0 0.00 0.00 0.00 91 1018.6
20260905125418 73 345 7.0 8.0 0.00 0.00 0.00 91 1018.6
20260905124914 73 309 5.0 8.0 0.00 0.00 0.00 91 1018.5
20260905124410 72 347 6.0 9.0 0.00 0.00 0.00 92 1018.4
20260905123910 72 353 6.0 9.0 0.00 0.00 0.00 92 1018.7
20260905123407 72 324 3.0 8.0 0.00 0.00 0.00 92 1018.7
20260905122902 72 357 4.0 8.0 0.00 0.00 0.00 93 1018.8
20260905122401 72 331 5.0 10.0 0.00 0.00 0.00 92 1018.6
20260905121857 72 343 4.0 7.0 0.00 0.00 0.00 92 1018.6
20260905121353 72 26 7.0 8.0 0.00 0.00 0.00 92 1018.6
20260905120852 71 316 4.0 7.0 0.00 0.00 0.00 92 1018.5
20260905120351 71 339 3.0 4.0 0.00 0.00 0.00 93 1018.6
20260905115847 70 282 3.0 4.0 0.00 0.00 0.00 94 1018.4
20260905115346 70 334 4.0 6.0 0.00 0.00 0.00 94 1018.4
20260905114841 70 297 4.0 6.0 0.00 0.00 0.00 93 1018.5
20260905114340 70 345 4.0 7.0 0.00 0.00 0.00 94 1018.4
20260905113839 70 318 3.0 7.0 0.00 0.00 0.00 94 1018.4
20260905113335 70 0 3.0 6.0 0.00 0.00 0.00 93 1018.1
20260905112830 70 318 4.0 6.0 0.00 0.00 0.00 93 1018.3
20260905112325 70 351 6.0 8.0 0.00 0.00 0.00 93 1018.3
20260905111821 70 353 3.0 6.0 0.00 0.00 0.00 92 1018.4
20260905111321 70 352 4.0 6.0 0.00 0.00 0.00 93 1018.1
20260905110820 70 346 4.0 7.0 0.00 0.00 0.00 93 1018.1
20260905110320 70 323 4.0 7.0 0.00 0.00 0.00 93 1018.1
20260905105815 70 4 3.0 7.0 0.00 0.00 0.00 93 1018.4
20260905105314 70 341 3.0 6.0 0.00 0.00 0.00 93 1018.3
20260905104809 70 19 4.0 6.0 0.00 0.00 0.00 93 1018.3